Torna al catalogo

BREEZE-M R/B

AttivoHEO
NORAD 38653·ROCKET BODY·🇷🇺 Russia

Lanciato Jul 9, 2012 da Baikonur Cosmodrome

Loading…

Prossimi Passaggi (prossime 24 ore)

TLE

AggiornatoSource: Space-Track

Epoca: Sep 12, 2026, 22:25 UTC

1 38653U 12036B   26255.93414071 -.00000115  00000-0  00000-0 0  9994
2 38653  23.4998 293.5211 6087768 314.9404   9.4299  2.17149926112482

Traccia BREEZE-M R/B in tempo reale con AllMySat

Download on the App Store